Location: Góry Miechowskie
(50.3599°N, 20.1803°E)
Time: 17:11:35
(UTC+00:00)

GEOS 3 Rocket - Visible Passes

Search period start: 20 September 2024 00:00
Search period end: 30 September 2024 00:00
Orbit: 789 x 827 km, 115.0° (Epoch: 19 September)

Date Brightness Start Highest point End Pass type
(mag) Time Alt. Az. Time Alt. Az. Time Alt. Az.
20 Sep 3.9 18:00:53 19° ESE 18:04:31 56° NE 18:09:34 10° NW visible
20 Sep 4.5 19:41:58 36° SW 19:42:40 37° WSW 19:47:29 10° NW visible
21 Sep 4.3 17:35:59 13° E 17:40:17 39° NNE 17:45:04 10° NNW visible
21 Sep 3.9 19:17:03 49° S 19:18:09 61° SW 19:23:18 10° NW visible
21 Sep 6.1 20:58:08 12° W 20:58:08 12° W 20:59:10 10° W visible
22 Sep 4.8 17:11:42 10° E 17:16:08 30° NNE 17:20:33 10° NNW visible
22 Sep 3.5 18:52:08 47° SE 18:53:44 87° NE 18:58:56 10° NW visible
22 Sep 5.5 20:33:12 21° W 20:33:12 21° W 20:36:12 10° WNW visible
23 Sep 3.8 18:27:11 33° ESE 18:29:24 59° NE 18:34:29 10° NW visible
23 Sep 4.8 20:08:16 34° WSW 20:08:16 34° WSW 20:12:21 10° NW visible
24 Sep 4.3 18:02:15 22° E 18:05:09 41° NE 18:09:58 10° NW visible
24 Sep 4.0 19:43:19 57° WSW 19:43:19 57° WSW 19:48:10 10° NW visible
25 Sep 4.7 17:37:17 14° E 17:41:00 30° NNE 17:45:27 10° NNW visible
25 Sep 3.4 19:18:21 81° SE 19:18:37 89° SW 19:23:49 10° NW visible
25 Sep 5.9 20:59:25 16° W 20:59:25 16° W 21:01:00 10° WNW visible
26 Sep 5.1 17:12:51 10° ENE 17:16:55 24° NNE 17:20:59 10° NNW visible
26 Sep 3.7 18:53:23 53° E 18:54:16 61° NE 18:59:22 10° NW visible
26 Sep 5.4 20:34:27 26° W 20:34:27 26° W 20:37:12 10° WNW visible
27 Sep 4.2 18:28:23 33° ENE 18:30:01 42° NE 18:34:52 10° NW visible
27 Sep 4.7 20:09:28 40° WNW 20:09:28 40° WNW 20:13:03 10° NW visible
28 Sep 4.7 18:03:24 21° ENE 18:05:51 31° NNE 18:10:21 10° NNW visible
28 Sep 4.0 19:44:28 61° NW 19:44:28 61° NW 19:48:42 10° NW visible
28 Sep 6.3 21:25:32 11° WNW 21:25:32 11° WNW 21:25:47 10° WNW visible
29 Sep 5.0 17:38:23 13° ENE 17:41:45 25° NNE 17:45:51 10° NNW visible
29 Sep 3.8 19:19:28 62° NNE 19:19:28 62° NNE 19:24:16 10° NW visible
29 Sep 5.9 21:00:32 18° WNW 21:00:32 18° WNW 21:02:02 10° WNW visible
